Temperature
21 21 21 20 20 20 20 19 19 18 18 17 17 17 17 16 16 16 16 16 16 16 16 15 15 15 15 15 15 15 15 15 15 15 15 15 15 15 15 15 15 15 15
21 21 20 20 20 20 20 19 19 18 18 18 17 17 17 16 16 16 16 16 16 15 15 15 15 15 15 15 15 15 15 14 15 15 15 15 15 15 15 15 15 14 14
21 20 20 20 20 20 19 19 19 19 18 18 17 17 17 16 16 16 16 16 15 15 15 15 15 15 15 15 14 14 14 14 14 15 15 14 14 14 14 14 14 14 14
21 20 20 20 19 19 19 19 19 18 18 17 17 17 17 16 16 16 16 16 16 15 15 15 15 15 15 15 14 14 14 14 14 14 14 15 15 14 14 14 14 14 14
21 20 20 19 19 19 19 18 18 18 18 17 17 17 17 16 16 16 16 16 15 15 15 15 15 15 14 14 14 14 14 14 14 14 14 14 14 14 14 14 14 14 14
21 20 20 19 19 19 18 18 18 18 17 17 17 17 17 16 16 16 16 16 15 15 15 15 15 15 14 14 14 14 14 14 14 14 14 14 14 14 14 14 14 14 14
21 20 19 19 19 18 18 18 17 17 17 17 17 17 17 16 16 16 16 15 15 15 15 15 15 15 14 14 14 14 14 14 14 14 14 14 14 14 14 14 14 13 13
20 19 19 18 18 18 17 17 17 17 17 17 16 16 16 16 16 16 16 15 15 15 15 15 15 14 14 14 14 14 14 14 14 14 14 14 14 14 14 14 13 13 13
20 19 18 18 18 17 17 17 17 17 17 16 16 16 16 16 16 16 15 15 15 15 15 15 15 14 14 14 14 14 14 13 13 13 13 13 13 13 13 13 13 13 13
19 19 18 17 17 17 16 16 16 16 16 16 16 16 16 16 15 15 15 15 15 15 15 15 15 14 14 14 14 14 14 14 13 13 13 13 13 13 13 13 13 13 13
19 18 18 17 17 16 16 16 16 16 16 16 16 16 16 15 15 15 15 15 15 15 14 14 14 14 14 14 14 13 13 13 13 13 13 13 13 13 13 13 13 13 13
19 18 17 17 16 16 16 15 15 15 15 15 15 15 15 15 15 15 15 15 14 14 14 14 14 14 14 14 13 13 13 13 13 13 13 13 13 13 13 13 13 12 12
18 18 17 16 16 16 15 15 15 15 15 15 15 15 15 14 14 14 14 14 14 14 14 14 14 14 13 13 13 13 13 13 13 13 13 13 13 13 13 12 12 12 12
18 17 17 16 16 15 15 15 15 14 14 14 14 14 14 14 14 14 14 14 14 14 13 13 13 13 13 13 13 13 13 13 13 13 13 13 13 13 12 12 12 12 12
18 17 17 16 16 15 15 15 14 14 14 14 14 14 14 14 14 14 14 13 13 13 13 13 13 13 13 13 12 12 12 12 12 12 12 12 12 12 12 12 12 12 12
18 17 17 16 15 15 14 14 14 14 13 13 13 13 13 13 13 13 13 13 13 13 13 12 12 12 12 12 12 12 12 12 12 12 12 12 12 12 12 12 12 12 12
17 17 16 16 15 15 14 14 14 13 13 13 13 13 13 12 13 13 12 12 12 12 12 12 12 12 12 12 12 11 11 11 11 11 11 11 11 12 12 12 12 12 11
17 16 16 15 15 14 14 14 13 13 13 12 12 12 12 12 12 12 12 12 12 12 12 12 11 11 11 11 11 11 11 11 11 11 11 11 11 11 11 11 11 11 11
16 16 15 15 14 14 14 13 13 12 12 12 12 12 12 12 12 12 12 12 11 11 11 11 11 11 11 11 11 11 11 11 11 11 11 10 11 11 11 11 11 11 11
15 15 15 14 14 14 13 13 12 12 12 12 12 12 12 12 12 12 11 11 11 11 11 11 10 10 10 10 10 10 10 10 10 10 10 10 10 10 10 10 10 10 10
14 14 14 14 13 13 13 12 12 12 12 11 11 11 11 11 11 11 11 11 11 11 10 10 10 10 10 10 10 10 10 9 9 10 10 10 10 10 10 10 10 10 10
14 13 13 13 13 12 12 12 12 12 11 11 11 11 11 11 11 11 10 10 10 10 10 10 10 10 9 10 10 9 9 9 9 9 9 9 9 9 9 9 9 9 9
13 13 13 12 12 12 12 12 12 11 11 11 11 11 11 10 10 10 10 10 10 10 9 9 9 9 9 9 9 9 9 9 9 9 9 9 9 9 9 9 9 9 9
12 12 12 12 12 12 11 11 11 11 11 11 10 10 10 10 10 9 9 9 9 9 9 9 9 9 9 9 9 8 8 8 8 8 8 8 8 8 8 8 8 8 8
12 12 12 11 11 11 11 11 11 11 10 10 10 10 9 9 9 9 9 9 9 8 8 8 8 8 8 8 8 8 8 8 8 8 8 8 8 8 7 7 7 7 8
11 11 11 11 11 11 11 10 10 10 10 9 9 9 9 9 8 8 8 8 8 8 8 8 8 8 8 8 8 8 8 8 7 7 7 7 7 7 7 7 7 7 7
Wind_Speed
7 7 5 5 5 5 6 8 7 5 5 4 3 3 2 2 2 2 3 2 2 3 3 2 3 3 3 2 2 3 2 1 2 2 2 2 2 3 3 3 3 3 5
7 6 6 5 5 5 4 7 6 6 5 3 3 3 3 2 3 2 2 1 1 2 2 2 2 3 2 1 2 3 2 1 1 1 1 1 2 2 2 2 2 2 3
5 6 5 5 4 4 4 4 5 6 6 5 3 3 3 1 2 2 2 1 1 2 1 2 2 3 3 2 2 2 2 1 1 1 1 1 1 0 1 1 3 2 2
5 5 4 4 4 3 4 4 4 4 5 5 4 4 3 2 3 3 3 3 3 2 2 1 1 2 3 3 3 3 2 2 1 1 1 1 2 2 0 2 1 1 2
5 5 5 4 5 4 3 3 3 3 4 4 5 3 2 2 1 2 3 3 2 2 3 2 2 2 2 3 3 2 2 2 2 1 0 1 1 1 1 1 1 1 0
6 5 5 4 4 5 3 2 3 3 3 3 4 4 4 3 2 2 3 2 2 3 3 3 2 2 2 3 3 3 3 2 1 1 1 1 1 1 1 1 1 1 1
4 4 4 4 4 5 4 3 3 3 3 4 4 5 5 4 4 3 3 3 2 2 3 3 2 2 2 2 2 3 3 3 2 2 1 1 1 1 1 1 1 0 1
4 4 4 3 4 4 3 3 3 3 4 4 4 4 4 3 3 3 3 3 2 2 3 3 3 3 3 2 2 2 3 2 2 2 2 1 2 1 1 2 2 0 1
4 5 4 3 3 3 2 2 3 3 3 4 3 2 3 3 3 2 2 3 2 2 2 3 3 3 3 3 2 2 3 3 3 3 2 2 2 1 1 1 2 2 1
5 5 4 3 3 3 2 2 2 2 2 2 2 2 3 2 2 3 2 2 2 2 2 1 2 2 2 3 2 3 3 3 3 2 3 2 2 2 1 1 1 1 2
5 4 4 3 3 3 2 1 1 1 1 1 2 2 3 2 2 2 3 3 2 3 2 2 2 1 1 2 2 2 3 3 3 3 3 3 3 2 2 1 1 1 1
5 4 4 3 3 3 2 1 1 1 1 1 1 1 2 2 2 2 2 2 2 2 2 2 2 2 1 1 2 2 2 3 3 4 4 4 3 3 2 2 2 2 2
5 4 4 3 3 2 2 1 1 1 1 1 0 1 1 1 1 1 2 2 3 3 3 2 2 2 2 2 1 2 2 2 2 3 3 3 3 3 2 2 2 2 2
4 4 4 3 3 2 2 1 1 2 1 1 1 1 1 1 1 1 1 1 2 3 3 3 3 2 2 2 2 1 2 2 2 3 3 3 3 4 3 3 3 2 2
4 4 4 3 3 2 2 2 2 1 1 1 1 1 1 1 0 1 1 1 1 1 2 3 2 2 2 1 1 1 1 1 2 2 3 3 2 3 3 3 3 3 2
3 3 4 4 4 3 2 2 2 1 1 1 1 1 1 1 0 1 1 1 1 1 1 2 3 2 1 1 1 0 2 2 2 2 3 3 2 2 3 4 4 5 4
2 2 2 3 3 3 2 2 1 1 1 1 1 2 1 1 1 0 1 1 1 1 1 2 2 2 2 2 1 1 2 2 3 2 2 2 2 1 1 2 3 3 4
2 2 1 1 1 2 2 2 2 1 1 0 0 1 2 2 1 1 1 1 1 2 1 1 2 2 2 2 1 2 2 3 3 3 2 2 2 1 1 1 2 3 3
1 1 1 1 1 1 2 2 2 2 1 0 0 1 1 2 2 2 2 1 1 1 1 2 2 1 1 2 2 2 2 3 3 2 1 1 1 2 1 0 2 2 4
2 2 1 1 1 2 1 2 2 2 1 0 1 1 0 1 2 3 2 1 1 1 1 1 1 2 1 1 2 2 1 2 2 2 1 2 2 2 1 1 2 3 4
3 2 2 1 1 2 1 1 2 2 1 0 1 0 0 0 1 1 1 1 1 1 1 1 1 1 1 1 2 2 2 2 2 2 2 2 2 2 2 2 2 4 4
2 2 1 1 1 2 2 1 1 1 1 1 1 1 1 1 2 1 0 1 1 1 0 1 1 1 0 1 2 2 3 2 1 2 2 2 3 4 4 3 5 5 3
1 1 1 1 1 1 2 1 1 1 2 2 1 1 1 2 2 2 1 1 1 1 1 1 1 1 0 0 0 2 2 3 2 2 3 3 4 3 3 4 5 3 1
0 1 1 1 1 1 1 1 1 1 2 2 2 1 1 2 2 2 1 1 1 0 1 1 1 1 1 0 0 1 2 2 2 2 2 3 3 2 2 3 3 2 1
0 1 1 1 1 1 1 2 1 1 1 1 2 2 1 1 1 2 2 1 1 2 1 0 0 1 1 1 1 0 1 1 2 2 1 1 1 1 1 1 2 1 1
1 1 1 2 2 2 2 2 2 1 1 1 1 1 1 1 1 2 2 2 2 2 2 1 1 1 1 1 1 0 1 1 1 1 1 2 2 2 2 2 2 2 2
Wind_Direction
163 148 143 138 139 137 136 132 143 140 128 129 128 124 122 125 115 115 95 67 70 99 105 88 93 83 88 93 88 94 85 64 75 78 56 38 65 88 86 75 69 79 99
153 143 154 158 153 145 144 141 145 141 132 132 142 143 127 137 126 126 120 127 101 95 116 139 129 120 112 102 101 102 91 47 59 95 87 57 18 16 83 107 103 84 81
148 149 162 154 152 151 150 142 146 144 143 149 136 113 109 106 126 150 148 174 166 139 128 106 129 149 150 145 144 124 128 151 313 49 98 114 141 285 9 74 95 91 74
156 154 160 152 158 160 150 152 156 154 147 145 143 154 160 171 180 165 164 183 170 148 145 141 175 175 159 160 177 155 155 156 222 312 17 139 134 135 126 330 57 112 123
165 164 157 156 165 147 137 148 145 141 139 143 152 168 175 182 164 149 155 171 170 169 174 176 197 196 176 177 176 157 163 178 191 200 267 19 17 203 153 217 271 324 253
167 169 158 154 143 122 130 145 141 142 142 152 161 181 185 176 167 166 170 183 182 190 193 190 188 191 190 190 176 171 178 196 208 215 194 170 207 229 162 189 224 231 254
160 149 138 138 135 130 138 154 157 160 166 184 191 196 183 180 189 187 183 184 192 192 194 188 188 198 201 191 164 175 184 198 205 213 208 207 246 228 187 149 198 284 275
144 135 132 130 133 137 144 174 182 185 185 201 212 201 174 172 186 182 172 183 189 191 190 189 191 196 189 190 176 179 197 196 196 222 210 207 255 257 206 165 146 180 287
135 133 129 130 128 136 151 186 186 198 194 203 203 195 175 173 182 177 176 176 178 184 179 185 198 189 182 184 174 186 206 205 203 209 212 206 223 239 238 172 155 171 221
141 128 124 127 131 138 160 187 192 207 205 189 193 196 170 179 172 171 175 164 160 154 166 191 191 186 177 175 191 196 211 208 207 201 213 217 206 209 212 197 215 194 193
132 128 128 135 129 120 125 133 173 162 181 204 198 188 170 172 173 178 173 164 171 168 179 191 183 179 176 167 171 210 221 212 210 201 213 228 206 196 205 196 205 233 175
136 138 140 142 136 133 138 149 132 141 167 182 215 186 150 165 175 171 174 170 163 170 176 180 174 175 170 160 170 207 229 230 226 216 209 220 214 203 206 199 208 214 211
145 146 149 155 151 145 154 162 143 87 87 123 213 191 163 173 198 192 181 182 178 176 175 175 178 176 171 177 189 199 227 247 243 236 225 224 209 205 206 203 217 218 224
159 155 157 162 155 158 169 166 125 107 89 133 172 220 184 169 192 234 189 199 185 176 179 181 179 175 172 187 194 199 215 240 256 257 244 234 217 210 204 208 214 204 212
169 163 168 171 165 170 186 173 141 127 123 143 172 213 215 118 158 199 185 221 182 187 183 173 168 171 174 194 153 209 228 257 272 272 266 248 226 216 208 207 206 198 201
177 177 178 171 177 186 194 180 144 144 134 153 198 171 126 124 184 198 183 213 181 182 191 177 171 169 175 128 104 267 245 242 254 259 271 264 252 233 217 209 200 196 202
141 178 193 178 181 185 173 164 163 148 134 164 194 154 147 170 196 189 195 189 174 169 190 194 178 171 176 162 189 268 265 262 258 255 257 273 272 263 227 228 214 220 228
158 175 176 180 185 176 159 157 147 132 132 190 220 169 168 181 189 178 212 191 177 173 194 210 205 183 187 176 196 254 259 270 263 257 250 251 263 288 271 244 229 234 242
119 132 149 175 182 134 126 140 145 143 139 102 326 244 194 176 174 180 205 206 179 194 193 208 214 192 205 180 186 197 253 271 272 263 274 288 267 299 6 274 244 249 257
84 93 106 107 115 100 97 143 150 139 144 234 285 301 241 175 185 186 199 193 164 216 208 214 208 194 199 176 164 187 242 271 288 296 292 310 313 326 323 266 244 255 260
72 75 95 106 111 119 133 170 158 162 171 104 33 27 50 166 157 169 172 155 153 180 218 224 225 207 184 167 158 179 242 264 285 300 305 314 336 324 303 285 258 258 268
82 80 83 97 106 130 152 177 171 160 118 90 74 66 59 70 77 91 150 164 141 152 203 257 258 236 204 157 191 204 236 273 260 276 283 299 327 320 301 286 286 278 277
121 130 127 124 121 139 152 175 182 138 141 135 118 94 86 86 98 107 99 90 108 141 237 267 261 262 299 324 211 214 247 279 281 292 311 313 304 298 292 285 289 292 272
119 132 120 143 172 176 160 148 118 133 147 149 131 104 88 81 95 105 103 87 82 99 218 263 279 278 273 331 289 253 249 269 282 300 312 314 311 293 287 292 291 288 269
261 160 165 198 213 207 150 121 121 129 143 131 126 118 105 114 115 104 95 95 79 105 136 227 274 290 283 317 16 109 245 255 248 278 288 299 314 307 300 296 282 274 287
210 215 209 203 200 191 153 125 135 143 135 120 114 119 113 124 137 135 102 96 96 83 97 114 126 9 5 23 39 29 359 337 286 276 275 273 271 260 254 260 266 265 263
Height
1512 1514 1516 1518 1520 1522 1523 1524 1526 1528 1528 1529 1530 1531 1532 1532 1533 1534 1534 1535 1535 1536 1536 1536 1537 1537 1537 1538 1539 1539 1540 1541 1541 1542 1542 1543 1544 1544 1545 1545 1545 1546 1546
1510 1513 1515 1517 1519 1520 1522 1523 1525 1526 1527 1528 1529 1530 1531 1532 1532 1533 1533 1534 1535 1535 1536 1536 1536 1537 1537 1538 1539 1539 1540 1541 1542 1542 1542 1543 1545 1545 1545 1545 1545 1546 1546
1509 1511 1513 1514 1517 1518 1520 1522 1523 1525 1526 1527 1528 1529 1530 1531 1532 1532 1533 1533 1534 1534 1535 1535 1536 1536 1537 1537 1538 1539 1539 1540 1542 1542 1543 1543 1543 1544 1546 1545 1545 1545 1545
1507 1510 1511 1513 1515 1517 1518 1520 1521 1523 1524 1525 1526 1528 1528 1529 1530 1531 1531 1532 1533 1533 1534 1534 1535 1535 1536 1537 1537 1538 1539 1540 1541 1542 1542 1543 1543 1544 1544 1545 1545 1545 1545
1506 1508 1510 1512 1513 1515 1516 1518 1520 1521 1522 1524 1525 1526 1527 1528 1529 1530 1530 1531 1531 1532 1532 1533 1533 1534 1535 1536 1536 1537 1538 1539 1540 1540 1541 1542 1542 1543 1543 1544 1544 1545 1544
1504 1507 1508 1510 1512 1513 1514 1516 1518 1519 1520 1521 1522 1524 1525 1526 1527 1528 1528 1529 1529 1530 1531 1531 1532 1532 1533 1534 1535 1535 1536 1537 1538 1539 1540 1541 1541 1542 1542 1542 1543 1543 1543
1502 1505 1507 1508 1510 1511 1512 1514 1516 1517 1518 1519 1520 1521 1522 1523 1524 1525 1526 1527 1527 1528 1528 1529 1529 1530 1531 1532 1533 1533 1534 1535 1536 1537 1538 1539 1540 1540 1541 1541 1541 1541 1542
1501 1503 1505 1507 1508 1510 1511 1512 1514 1515 1516 1517 1518 1519 1520 1521 1522 1523 1524 1524 1525 1526 1526 1527 1528 1528 1529 1530 1530 1531 1532 1533 1534 1535 1536 1536 1537 1538 1539 1539 1540 1539 1540
1500 1502 1504 1505 1507 1508 1509 1511 1512 1513 1514 1514 1515 1516 1518 1518 1519 1520 1521 1522 1523 1523 1524 1525 1525 1526 1527 1527 1528 1529 1529 1531 1532 1532 1533 1534 1535 1536 1537 1537 1538 1539 1538
1499 1500 1502 1504 1505 1507 1507 1508 1509 1510 1511 1512 1513 1514 1515 1516 1517 1517 1518 1519 1520 1521 1522 1522 1523 1524 1524 1525 1526 1526 1527 1528 1529 1530 1531 1531 1532 1533 1534 1535 1536 1536 1536
1497 1499 1501 1503 1504 1505 1506 1507 1507 1508 1508 1509 1510 1511 1512 1513 1514 1515 1515 1516 1517 1518 1519 1520 1521 1521 1522 1522 1523 1524 1525 1525 1526 1527 1528 1529 1530 1531 1531 1532 1533 1533 1534
1496 1498 1500 1501 1502 1503 1504 1504 1505 1505 1505 1506 1507 1508 1509 1510 1511 1512 1513 1513 1514 1515 1516 1517 1518 1518 1519 1520 1520 1521 1522 1523 1524 1524 1525 1526 1527 1528 1528 1529 1530 1531 1531
1495 1497 1498 1500 1500 1501 1502 1502 1502 1503 1503 1503 1504 1505 1506 1507 1508 1509 1510 1510 1511 1512 1513 1514 1515 1515 1516 1517 1518 1519 1519 1520 1521 1522 1522 1523 1524 1524 1525 1526 1527 1528 1528
1493 1495 1496 1497 1498 1499 1500 1500 1500 1500 1501 1501 1501 1502 1502 1504 1505 1506 1507 1507 1508 1509 1510 1511 1512 1513 1513 1514 1515 1516 1516 1517 1518 1518 1519 1520 1521 1521 1522 1523 1524 1524 1525
1491 1492 1494 1495 1496 1497 1498 1498 1498 1498 1498 1499 1499 1499 1500 1501 1502 1502 1503 1504 1505 1506 1507 1508 1508 1509 1510 1511 1512 1513 1513 1514 1514 1515 1516 1517 1518 1518 1519 1520 1520 1521 1521
1489 1490 1492 1493 1494 1495 1495 1496 1496 1496 1496 1496 1496 1497 1497 1498 1498 1499 1500 1501 1502 1503 1504 1505 1506 1506 1507 1508 1509 1510 1510 1511 1511 1512 1512 1513 1514 1515 1515 1516 1517 1517 1518
1486 1488 1489 1490 1491 1492 1492 1493 1493 1494 1494 1494 1494 1495 1495 1495 1496 1496 1497 1498 1498 1500 1501 1502 1503 1503 1504 1505 1506 1506 1507 1507 1508 1509 1509 1510 1511 1511 1512 1512 1513 1514 1514
1484 1485 1487 1487 1488 1489 1489 1490 1491 1491 1491 1492 1492 1492 1492 1493 1493 1494 1494 1495 1496 1497 1498 1499 1500 1501 1501 1502 1503 1503 1504 1504 1505 1505 1506 1506 1507 1507 1508 1508 1509 1509 1510
1483 1484 1485 1485 1486 1487 1487 1488 1488 1489 1489 1489 1489 1489 1490 1490 1490 1491 1492 1492 1493 1494 1495 1496 1497 1498 1499 1499 1500 1500 1500 1501 1501 1502 1502 1503 1503 1503 1504 1504 1504 1505 1505
1481 1482 1483 1483 1484 1484 1485 1486 1486 1486 1486 1487 1487 1487 1487 1487 1488 1488 1489 1490 1491 1492 1493 1493 1494 1495 1496 1496 1497 1497 1497 1498 1498 1498 1498 1499 1499 1500 1500 1500 1500 1500 1501
1479 1480 1481 1481 1482 1482 1483 1483 1484 1484 1484 1485 1485 1485 1484 1485 1486 1486 1487 1487 1488 1489 1490 1491 1492 1492 1493 1493 1494 1494 1494 1495 1494 1495 1495 1495 1496 1496 1496 1497 1496 1496 1497
1478 1478 1479 1480 1480 1481 1481 1481 1481 1482 1482 1483 1483 1483 1482 1483 1483 1484 1484 1485 1486 1487 1487 1488 1489 1490 1490 1490 1490 1491 1491 1492 1491 1491 1492 1492 1492 1492 1492 1492 1492 1493 1493
1477 1477 1478 1478 1478 1479 1479 1479 1480 1480 1480 1481 1481 1481 1481 1481 1481 1481 1482 1483 1484 1484 1485 1486 1486 1487 1487 1487 1487 1488 1488 1488 1488 1488 1488 1488 1488 1488 1488 1488 1488 1489 1489
1475 1475 1476 1476 1476 1477 1477 1478 1478 1478 1479 1479 1479 1479 1479 1479 1480 1480 1480 1481 1481 1481 1482 1483 1483 1484 1484 1484 1484 1484 1485 1485 1485 1485 1485 1485 1484 1484 1484 1484 1484 1484 1484
1473 1473 1473 1474 1474 1474 1475 1475 1476 1476 1476 1477 1477 1477 1477 1478 1478 1478 1478 1478 1479 1480 1480 1480 1481 1481 1481 1481 1482 1481 1481 1481 1481 1481 1481 1481 1480 1480 1479 1480 1480 1480 1480
1471 1471 1471 1471 1471 1472 1472 1472 1473 1473 1474 1474 1475 1475 1475 1476 1476 1476 1476 1477 1478 1478 1478 1478 1478 1478 1478 1478 1478 1478 1478 1478 1478 1478 1477 1477 1476 1476 1476 1476 1476 1476 1476